sat.trackr.live / text

‹ back to catalog

STARLINK-11488 [DTC]

NORAD 62222 · 2024-231E

PAYLOAD ACTIVE UNKNOWN

§ Identity

Operator
Country
US
Launch date
2024-12-05
Launch site
AFWTR
Launch vehicle
Mass (kg)
RCS (m²)

Purposes: comms

External: N2YO · Heavens-Above · Gunter

§ Orbital elements

Epoch: 2026-09-21T04:17:45.000384Z

Period
91.74 min
Inclination
53.1573°
Eccentricity
0.0001174
Mean motion
15.69728663 rev/d
Perigee alt
358.9 km
Apogee alt
360.5 km
Semi-major
6,737.8 km
B*
1.2660e-3
RAAN
217.6966°
Arg perigee
53.8149°
Mean anomaly
306.2977°
Rev number
10,411

§ Raw data

STARLINK-11488 [DTC]1 62222U 24231E   26264.17899306  .00155814  00000+0  12660-2 0  99992 62222  53.1573 217.6966 0001174  53.8149 306.2977 15.69728663104114

JSON: /api/v1/satellites/62222 · /tle

For live sub-satellite position, see the globe view (requires WebGL).

§ Visibility from observer

Set your observer location to see the next 7 days of passes ≥ 10°. The values pass through the URL so the page stays shareable.

No JS? Fill the form by hand. The geolocation button needs JavaScript.